Burns Flat, OK

7:55 AM CST on February 26, 2017 (GMT -0600)
Clinton-Sherman

Weather History for KCSM - October, 2013

Change the Weather History Date:

Monday, October 7, 2013

  Actual Average Record
Temperature  
Mean Temperature 62 °F -  
Max Temperature 75 °F 73 °F 95 °F (2014)
Min Temperature 48 °F 52 °F 35 °F (2012)
Degree Days  
Heating Degree Days 4    
Growing Degree Days 12 (Base 50)    
Moisture  
Dew Point 40 °F    
Average Humidity 45    
Maximum Humidity 74    
Minimum Humidity 23    
Precipitation  
Precipitation 0.00 in - - ()
Sea Level Pressure  
Sea Level Pressure 30.13 in    
Wind  
Wind Speed 6 mph (ENE)    
Max Wind Speed 12 mph    
Max Gust Speed -    
Visibility 10 miles    
Events      
Averages and records for this station are not official NWS values.
T = Trace of Precipitation, MM = Missing Value Source: NWS Daily Summary

Daily Weather History Graph

Daily Weather History Graph

Search for Another Location

Airport or City:

Trip Planner

Search our weather history database for the weather conditions in past years. The results will help you decide how hot, cold, wet, or windy it might be!

Date:

Astronomy

Oct. 07, 2013 Rise Set
Actual Time 7:36 AM CDT 7:11 PM CDT
Civil Twilight 7:11 AM CDT 7:37 PM CDT
Nautical Twilight 6:41 AM CDT 8:06 PM CDT
Astronomical Twilight 6:12 AM CDT 8:36 PM CDT
Moon 10:21 AM CDT (10/7) 9:05 PM CDT (10/7)
Length of Visible Light 12h 26m
Length of Day
11h 35m
Waxing Crescent, 9% of the Moon is Illuminated
Oct 7
Waxing Crescent
Oct 11
First Quarter
Oct 18
Full
Oct 26
Last Quarter
Nov 3
New

Hourly Weather History & Observations

Time (CDT) Temp. Dew Point Humidity Pressure Visibility Wind Dir Wind Speed Gust Speed Precip Events Conditions
12:53 AM 55.9 °F 41.0 °F 57% 30.12 in 10.0 mi NNW 5.8 mph - N/A   Clear
1:53 AM 57.9 °F 37.9 °F 47% 30.12 in 10.0 mi NW 6.9 mph - N/A   Clear
2:53 AM 54.0 °F 41.0 °F 62% 30.12 in 10.0 mi WNW 5.8 mph - N/A   Clear
3:53 AM 52.0 °F 42.1 °F 69% 30.12 in 10.0 mi WNW 4.6 mph - N/A   Clear
4:53 AM 51.1 °F 39.9 °F 66% 30.13 in 10.0 mi NW 6.9 mph - N/A   Clear
5:53 AM 51.1 °F 39.9 °F 66% 30.14 in 10.0 mi NW 5.8 mph - N/A   Clear
6:53 AM 48.9 °F 41.0 °F 74% 30.15 in 10.0 mi NNW 6.9 mph - N/A   Clear
7:53 AM 51.1 °F 41.0 °F 68% 30.17 in 10.0 mi NNW 9.2 mph - N/A   Clear
8:53 AM 57.0 °F 41.0 °F 55% 30.18 in 10.0 mi NNW 6.9 mph - N/A   Clear
9:53 AM 61.0 °F 41.0 °F 48% 30.19 in 10.0 mi North 8.1 mph - N/A   Clear
10:53 AM 64.9 °F 37.9 °F 37% 30.20 in 10.0 mi NE 5.8 mph - N/A   Clear
11:53 AM 70.0 °F 34.0 °F 27% 30.19 in 10.0 mi ENE 4.6 mph - N/A   Clear
12:53 PM 73.0 °F 35.1 °F 25% 30.17 in 10.0 mi Calm Calm - N/A   Clear
1:53 PM 73.0 °F 35.1 °F 25% 30.14 in 10.0 mi SE 4.6 mph - N/A   Clear
2:53 PM 75.9 °F 36.0 °F 23% 30.11 in 10.0 mi Calm Calm - N/A   Clear
3:53 PM 75.9 °F 37.9 °F 25% 30.10 in 10.0 mi SE 5.8 mph - N/A   Clear
4:53 PM 75.9 °F 37.9 °F 25% 30.09 in 10.0 mi South 3.5 mph - N/A   Clear
5:53 PM 75.9 °F 37.9 °F 25% 30.08 in 10.0 mi SSE 5.8 mph - N/A   Clear
6:53 PM 71.1 °F 44.1 °F 38% 30.08 in 10.0 mi SE 8.1 mph - N/A   Clear
7:53 PM 66.9 °F 44.1 °F 44% 30.09 in 10.0 mi SE 8.1 mph - N/A   Clear
8:53 PM 66.0 °F 42.1 °F 42% 30.08 in 10.0 mi SE 11.5 mph - N/A   Clear
9:53 PM 64.0 °F 42.1 °F 45% 30.09 in 10.0 mi SE 11.5 mph - N/A   Clear
10:53 PM 61.0 °F 41.0 °F 48% 30.08 in 10.0 mi SE 10.4 mph - N/A   Clear
11:53 PM 60.1 °F 39.9 °F 47% 30.07 in 10.0 mi SE 9.2 mph - N/A   Clear